Hourly Weather Barinas

Today, 22 September, Tuesday

Time Temperature Precipitation Wind Pressure Humidity
00:00 +25°C° 0 mm 1 mps 742 mmHg 85%
01:00 +25°C° 0 mm 1 mps 742 mmHg 85%
02:00 +24°C° 0 mm 1 mps 742 mmHg 85%
03:00 +24°C° 0 mm 1 mps 742 mmHg 84%
04:00 +24°C° 0 mm 1 mps 742 mmHg 84%
05:00 +25°C° 0 mm 1 mps 742 mmHg 82%
06:00 +26°C° 0 mm 1 mps 743 mmHg 79%
07:00 +27°C° 0 mm 1 mps 743 mmHg 77%
08:00 +29°C° 0 mm 1 mps 744 mmHg 72%
09:00 +31°C° 0 mm 1 mps 744 mmHg 67%
10:00 +32°C° 0 mm 1 mps 744 mmHg 61%
11:00 +33°C° 0 mm 1 mps 743 mmHg 59%
12:00 +34°C° 0 mm 1 mps 743 mmHg 57%
13:00 +34°C° 0 mm 1 mps 742 mmHg 55%
14:00 +34°C° 0 mm 1 mps 741 mmHg 57%
15:00 +34°C° 0 mm 1 mps 741 mmHg 59%
16:00 +33°C° 0 mm 1 mps 741 mmHg 61%
17:00 +32°C° 0 mm 1 mps 741 mmHg 67%
18:00 +30°C° 0 mm 1 mps 741 mmHg 72%
19:00 +26°C° 0 mm 0 mps 742 mmHg 78%
20:00 +28°C° 0 mm 1 mps 742 mmHg 79%
21:00 +27°C° 0 mm 1 mps 742 mmHg 80%
22:00 +27°C° 0 mm 1 mps 743 mmHg 81%
23:00 +26°C° 0 mm 1 mps 742 mmHg 82%

Tomorrow, 23 September, Wednesday

Time Temperature Precipitation Wind Pressure Humidity
00:00 +26°C° 0 mm 1 mps 742 mmHg 82%
01:00 +26°C° 0 mm 1 mps 742 mmHg 82%
02:00 +26°C° 0 mm 1 mps 742 mmHg 82%
03:00 +25°C° 0 mm 1 mps 742 mmHg 81%
04:00 +25°C° 0 mm 1 mps 742 mmHg 81%
05:00 +26°C° 0 mm 1 mps 742 mmHg 79%
06:00 +27°C° 0 mm 1 mps 743 mmHg 78%
07:00 +27°C° 0 mm 1 mps 744 mmHg 76%
08:00 +29°C° 0.4 mm 1 mps 744 mmHg 72%
09:00 +31°C° 0.4 mm 1 mps 744 mmHg 67%
10:00 +33°C° 0.4 mm 1 mps 744 mmHg 63%
11:00 +34°C° 0.2 mm 1 mps 744 mmHg 60%
12:00 +34°C° 0.2 mm 1 mps 743 mmHg 57%
13:00 +35°C° 0.2 mm 2 mps 742 mmHg 54%
14:00 +35°C° 0 mm 2 mps 742 mmHg 59%
15:00 +34°C° 0 mm 2 mps 741 mmHg 65%
16:00 +34°C° 0 mm 2 mps 741 mmHg 70%
17:00 +31°C° 0.1 mm 2 mps 742 mmHg 75%
18:00 +30°C° 0.1 mm 1 mps 742 mmHg 80%
19:00 +28°C° 0.1 mm 1 mps 742 mmHg 86%
20:00 +28°C° 0.5 mm 1 mps 743 mmHg 87%
21:00 +27°C° 0.5 mm 1 mps 743 mmHg 88%
22:00 +27°C° 0.5 mm 1 mps 744 mmHg 89%
23:00 +26°C° 0.1 mm 1 mps 743 mmHg 89%

Day after tomorrow, 24 September, Thursday

Time Temperature Precipitation Wind Pressure Humidity
00:00 +26°C° 0.1 mm 1 mps 743 mmHg 88%
01:00 +25°C° 0.1 mm 1 mps 743 mmHg 88%
02:00 +25°C° 0 mm 1 mps 743 mmHg 87%
03:00 +25°C° 0 mm 1 mps 743 mmHg 85%
04:00 +25°C° 0 mm 1 mps 742 mmHg 84%
05:00 +26°C° 0 mm 1 mps 743 mmHg 82%
06:00 +26°C° 0 mm 1 mps 743 mmHg 80%
07:00 +25°C° 0 mm 0 mps 744 mmHg 77%
08:00 +29°C° 0.1 mm 1 mps 744 mmHg 72%
09:00 +31°C° 0.1 mm 1 mps 744 mmHg 67%
10:00 +33°C° 0.1 mm 1 mps 744 mmHg 62%
11:00 +34°C° 0.2 mm 2 mps 744 mmHg 62%
12:00 +34°C° 0.2 mm 2 mps 743 mmHg 62%
13:00 +34°C° 0.2 mm 2 mps 742 mmHg 62%
14:00 +32°C° 0.9 mm 2 mps 742 mmHg 68%
15:00 +31°C° 0.9 mm 2 mps 742 mmHg 74%
16:00 +31°C° 0.9 mm 2 mps 741 mmHg 81%
17:00 +29°C° 1.6 mm 1 mps 742 mmHg 84%
18:00 +28°C° 1.6 mm 1 mps 743 mmHg 87%
19:00 +27°C° 1.6 mm 1 mps 743 mmHg 90%
20:00 +27°C° 0.3 mm 1 mps 743 mmHg 90%
21:00 +26°C° 0.3 mm 1 mps 744 mmHg 90%
22:00 +26°C° 0.3 mm 1 mps 744 mmHg 90%
23:00 +26°C° 0.1 mm 1 mps 744 mmHg 90%

25 September, Friday

Time Temperature Precipitation Wind Pressure Humidity
00:00 +26°C° 0.1 mm 1 mps 743 mmHg 90%
01:00 +26°C° 0.1 mm 1 mps 743 mmHg 90%
02:00 +25°C° 0 mm 1 mps 743 mmHg 89%
03:00 +25°C° 0 mm 1 mps 743 mmHg 88%
04:00 +25°C° 0 mm 1 mps 743 mmHg 87%
05:00 +26°C° 0 mm 1 mps 743 mmHg 85%
06:00 +26°C° 0 mm 1 mps 744 mmHg 84%
07:00 +27°C° 0 mm 1 mps 744 mmHg 82%
08:00 +29°C° 0 mm 1 mps 744 mmHg 76%
09:00 +30°C° 0 mm 2 mps 745 mmHg 70%
10:00 +32°C° 0 mm 2 mps 745 mmHg 64%
11:00 +32°C° 0 mm 2 mps 744 mmHg 64%
12:00 +34°C° 0 mm 2 mps 743 mmHg 64%
13:00 +34°C° 0 mm 3 mps 743 mmHg 64%
14:00 +32°C° 0 mm 2 mps 742 mmHg 68%
15:00 +32°C° 0 mm 2 mps 741 mmHg 72%
16:00 +31°C° 0 mm 2 mps 741 mmHg 76%
17:00 +30°C° 0 mm 1 mps 741 mmHg 80%
18:00 +29°C° 0 mm 1 mps 742 mmHg 84%
19:00 +28°C° 0 mm 1 mps 742 mmHg 88%
20:00 +27°C° 0 mm 1 mps 743 mmHg 88%
21:00 +27°C° 0 mm 1 mps 743 mmHg 89%
22:00 +26°C° 0 mm 1 mps 743 mmHg 89%
23:00 +26°C° 0 mm 1 mps 743 mmHg 88%

26 September, Saturday

Time Temperature Precipitation Wind Pressure Humidity
00:00 +26°C° 0 mm 1 mps 743 mmHg 87%
01:00 +25°C° 0 mm 1 mps 742 mmHg 85%
02:00 +25°C° 0 mm 1 mps 742 mmHg 84%
03:00 +25°C° 0 mm 1 mps 742 mmHg 82%
04:00 +25°C° 0 mm 1 mps 742 mmHg 81%
05:00 +25°C° 0 mm 1 mps 743 mmHg 78%
06:00 +26°C° 0 mm 1 mps 743 mmHg 75%
07:00 +27°C° 0 mm 1 mps 743 mmHg 72%
08:00 +29°C° 0 mm 1 mps 744 mmHg 66%
09:00 +31°C° 0 mm 2 mps 744 mmHg 61%
10:00 +34°C° 0 mm 2 mps 744 mmHg 56%
11:00 +34°C° 0 mm 2 mps 743 mmHg 56%
12:00 +35°C° 0 mm 3 mps 742 mmHg 55%
13:00 +35°C° 0 mm 3 mps 742 mmHg 55%
14:00 +35°C° 0 mm 3 mps 741 mmHg 59%
15:00 +34°C° 0 mm 2 mps 740 mmHg 62%
16:00 +34°C° 0 mm 2 mps 740 mmHg 66%
17:00 +31°C° 0.1 mm 2 mps 740 mmHg 72%
18:00 +29°C° 0.1 mm 2 mps 741 mmHg 79%
19:00 +28°C° 0.1 mm 1 mps 741 mmHg 85%
20:00 +27°C° 0.3 mm 1 mps 742 mmHg 86%
21:00 +26°C° 0.3 mm 1 mps 742 mmHg 88%
22:00 +26°C° 0.3 mm 1 mps 742 mmHg 89%
23:00 +25°C° 0 mm 1 mps 742 mmHg 88%

27 September, Sunday

Time Temperature Precipitation Wind Pressure Humidity
00:00 +25°C° 0 mm 1 mps 741 mmHg 86%
01:00 +25°C° 0 mm 1 mps 741 mmHg 85%
02:00 +25°C° 0 mm 1 mps 741 mmHg 82%
03:00 +25°C° 0 mm 1 mps 741 mmHg 79%
04:00 +24°C° 0 mm 1 mps 741 mmHg 77%
05:00 +25°C° 0 mm 1 mps 741 mmHg 76%
06:00 +26°C° 0 mm 1 mps 742 mmHg 75%
07:00 +26°C° 0 mm 1 mps 742 mmHg 74%
08:00 +28°C° 0 mm 1 mps 742 mmHg 70%
09:00 +30°C° 0 mm 1 mps 743 mmHg 67%
10:00 +32°C° 0 mm 2 mps 743 mmHg 63%
11:00 +32°C° 0 mm 2 mps 742 mmHg 62%
12:00 +34°C° 0 mm 2 mps 741 mmHg 61%
13:00 +34°C° 0 mm 2 mps 740 mmHg 61%
14:00 +34°C° 0 mm 2 mps 740 mmHg 62%
15:00 +34°C° 0 mm 2 mps 739 mmHg 63%
16:00 +34°C° 0 mm 2 mps 739 mmHg 65%
17:00 +31°C° 0 mm 1 mps 739 mmHg 71%
18:00 +29°C° 0 mm 1 mps 740 mmHg 77%
19:00 +28°C° 0 mm 1 mps 740 mmHg 83%
20:00 +27°C° 0 mm 1 mps 741 mmHg 83%
21:00 +27°C° 0 mm 1 mps 741 mmHg 84%
22:00 +26°C° 0 mm 1 mps 741 mmHg 84%
23:00 +26°C° 0 mm 1 mps 741 mmHg 83%
Show more